M I D A S
Marine Information and Data Acquisition System
Tripno 2175 of the Zeeleeuw from 2011-07-06 06:55:43 to 2011-07-06 15:21:16
Back to CruiseResearch ActivitiesStationsMapUnderway DataData graphs

EquipmentUnitsComment
TimeDGPSUTC
LatitudeDGPSDM.mWGS84
LongitudeDGPSDM.mWGS84
TemperatureSBE03/SBE38deg celciusITS90
ConductivitySBE21S/mITS90
SalinitySBE21 Practical Salinity Units
ChlorophylAChelsea fluorimeterg/lCalibrated in Aceton
Missing or incorrect values are displayed as -999
Sea surface data collected by the RV Zeeleeuw from 2011-07-06 06:51:35 to 2011-07-06 16:11:52
Time Latitude Longitude Temperature Conductivity Salinity ChlorophylA
2011-07-06 06:52:40 51°13.64 2°56.003 22.6717 0.015363 0.08151 -3.020363
2011-07-06 06:53:41 51°13.66 2°55.924 22.6914 0.015363 0.081514 -3.020363
2011-07-06 06:54:41 51°13.681 2°55.831 22.6915 0.015363 0.08152 -3.020363
2011-07-06 06:55:40 51°13.692 2°55.783 22.7441 0.015363 0.081526 -3.020363
2011-07-06 06:56:38 51°13.701 2°55.793 22.7057 0.015363 0.081532 -3.020363
2011-07-06 06:57:38 51°13.75 2°55.757 22.662 0.015363 0.081532 -3.020363
2011-07-06 06:58:37 51°13.805 2°55.669 22.6608 0.015363 0.08153 -3.020363
2011-07-06 06:59:37 51°13.87 2°55.602 22.6844 0.015363 0.081535 -3.020363
2011-07-06 07:00:37 51°13.947 2°55.531 22.7015 0.015363 0.08154 -3.020363
2011-07-06 07:01:38 51°14.04 2°55.461 22.7029 0.015363 0.081544 -3.020363
2011-07-06 07:02:37 51°14.144 2°55.389 22.7026 0.015363 0.08155 -3.020363
2011-07-06 07:03:38 51°14.268 2°55.293 22.713 0.015363 0.081555 -3.020363
2011-07-06 07:04:38 51°14.401 2°55.17 22.6769 0.015363 0.08156 -3.020363
2011-07-06 07:05:38 51°14.564 2°55.005 22.6926 0.015363 0.081564 -3.020363
2011-07-06 07:06:37 51°14.737 2°54.804 22.6335 0.015363 0.081572 -3.020363
2011-07-06 07:07:38 51°14.914 2°54.587 22.6438 0.015363 0.081581 -3.020363
2011-07-06 07:08:37 51°15.093 2°54.404 22.6086 0.015363 0.081595 -3.020363
2011-07-06 07:09:38 51°15.262 2°54.185 22.5996 0.015363 0.08161 -3.020363
2011-07-06 07:10:37 51°15.428 2°53.976 22.5847 0.015363 0.081625 -3.020363
2011-07-06 07:11:37 51°15.6 2°53.775 22.595 0.015363 0.081642 -3.020363
2011-07-06 07:12:38 51°15.77 2°53.567 22.6065 0.01526 0.081142 -3.020363
2011-07-06 07:13:37 51°15.937 2°53.364 22.6122 0.01526 0.081161 -3.020363
2011-07-06 07:14:38 51°16.113 2°53.16 22.599 0.01526 0.081178 -3.020363
2011-07-06 07:15:37 51°16.313 2°53.05 22.6151 0.01526 0.081208 -3.020363
2011-07-06 07:16:37 51°16.519 2°52.952 22.6313 0.01526 0.08122 -3.020363
2011-07-06 07:17:37 51°16.723 2°52.851 22.6212 0.01526 0.081238 -3.020363
2011-07-06 07:18:38 51°16.927 2°52.733 22.6246 0.01526 0.081256 -3.020363
2011-07-06 07:19:37 51°17.127 2°52.616 22.6385 0.01526 0.081274 -3.020363
2011-07-06 07:20:38 51°17.334 2°52.502 22.6581 0.01526 0.081284 -3.020363
2011-07-06 07:21:38 51°17.539 2°52.403 22.6603 0.01526 0.081307 -3.020363
2011-07-06 07:22:38 51°17.753 2°52.35 22.6756 0.01526 0.08133 -3.020363
2011-07-06 07:23:38 51°17.966 2°52.322 22.676 0.01526 0.081331 -3.020363
2011-07-06 07:24:37 51°18.176 2°52.314 22.6888 0.01526 0.081357 -3.020363
2011-07-06 07:25:38 51°18.394 2°52.314 22.6873 0.01526 0.081367 -3.020363
2011-07-06 07:26:37 51°18.606 2°52.304 22.7048 0.01526 0.081384 -3.020363
2011-07-06 07:27:38 51°18.825 2°52.294 22.7051 0.01526 0.081401 -3.020363
2011-07-06 07:28:38 51°19.041 2°52.314 22.717 0.01526 0.081418 -3.020363
2011-07-06 07:29:38 51°19.254 2°52.361 22.7243 0.01526 0.081432 -3.020363
2011-07-06 07:30:37 51°19.458 2°52.437 22.7251 0.01526 0.081444 -3.020363
2011-07-06 07:31:38 51°19.648 2°52.592 22.7385 0.01526 0.081454 -3.020363
2011-07-06 07:32:38 51°19.787 2°52.842 22.7499 0.01526 0.081458 -3.020363
2011-07-06 07:33:37 51°19.925 2°53.098 22.7606 0.01526 0.081478 -3.020363
2011-07-06 07:34:37 51°20.074 2°53.35 22.7834 0.01526 0.081487 -3.020363
2011-07-06 07:35:37 51°20.235 2°53.567 22.7822 0.015157 0.08097 -3.020363
2011-07-06 07:36:38 51°20.406 2°53.771 22.7865 0.015157 0.080972 -3.020363
2011-07-06 07:37:37 51°20.564 2°53.983 22.8088 0.015157 0.080977 -3.020363
2011-07-06 07:38:37 51°20.728 2°54.189 22.8135 0.015157 0.08098 -3.020363
2011-07-06 07:39:38 51°20.899 2°54.389 22.8189 0.015157 0.080982 -3.020363
2011-07-06 07:40:37 51°21.064 2°54.597 22.842 0.015157 0.080986 -3.020363
2011-07-06 07:41:37 51°21.231 2°54.807 22.8286 0.015157 0.080994 -3.020363
2011-07-06 07:42:37 51°21.4 2°55.01 22.8546 0.015157 0.080996 -3.020363
2011-07-06 07:43:37 51°21.564 2°55.221 22.8464 0.015157 0.081002 -3.020363
2011-07-06 07:44:37 51°21.728 2°55.439 22.8779 0.015157 0.081003 -3.020363
2011-07-06 07:45:37 51°21.899 2°55.641 22.8814 0.015157 0.081005 -3.020363
2011-07-06 07:46:37 51°22.069 2°55.84 22.8895 0.015157 0.081008 -3.020363
2011-07-06 07:47:37 51°22.243 2°56.042 22.8977 0.015157 0.081013 -3.020363
2011-07-06 07:48:37 51°22.41 2°56.259 22.9095 0.015157 0.08101 -3.020363
2011-07-06 07:49:37 51°22.568 2°56.477 22.9114 0.015157 0.081016 -3.020363
2011-07-06 07:50:37 51°22.724 2°56.702 22.9218 0.015157 0.081013 -3.020363
2011-07-06 07:51:37 51°22.877 2°56.926 22.9448 0.015157 0.081019 -3.020363
2011-07-06 07:52:37 51°23.014 2°57.177 22.9526 0.015157 0.081022 -3.020363
2011-07-06 07:53:37 51°23.165 2°57.411 22.9644 0.015157 0.081022 -3.020363
2011-07-06 07:54:37 51°23.319 2°57.63 22.9615 0.015157 0.081021 -3.020363
2011-07-06 07:55:37 51°23.47 2°57.859 22.9779 0.015157 0.081026 -3.020363
2011-07-06 07:56:37 51°23.63 2°58.077 22.9689 0.015157 0.081031 -3.020363
2011-07-06 07:57:37 51°23.79 2°58.299 22.9657 0.015157 0.081036 -3.020363
2011-07-06 07:58:37 51°23.947 2°58.525 23.007 0.015157 0.081043 -3.020363
2011-07-06 07:59:37 51°24.103 2°58.746 23.0036 0.015157 0.081043 -3.020363
2011-07-06 08:00:37 51°24.262 2°58.965 23.0156 0.015157 0.081046 -3.020363
2011-07-06 08:01:37 51°24.444 2°59.145 22.9944 0.015054 0.080521 -3.020363
2011-07-06 08:02:37 51°24.634 2°59.309 23.0585 0.015054 0.080519 -3.020363
2011-07-06 08:03:37 51°24.819 2°59.48 23.0443 0.015054 0.080524 -3.020363
2011-07-06 08:04:37 51°24.998 2°59.667 23.0398 0.015054 0.080527 -3.020363
2011-07-06 08:05:37 51°25.175 2°59.859 23.0462 0.015054 0.080538 -3.020363
2011-07-06 08:06:37 51°25.352 3°0.047 23.0782 0.015054 0.080536 -3.020363
2011-07-06 08:07:37 51°25.527 3°0.242 23.0705 0.015054 0.080536 -3.020363
2011-07-06 08:08:37 51°25.707 3°0.429 23.1105 0.015054 0.080539 -3.020363
2011-07-06 08:09:37 51°25.887 3°0.623 23.095 0.015054 0.080547 -3.020363
2011-07-06 08:10:37 51°26.064 3°0.812 23.1184 0.015054 0.080556 -3.020363
2011-07-06 08:11:37 51°26.244 3°0.995 23.1223 0.015054 0.080557 -3.020363
2011-07-06 08:12:37 51°26.426 3°1.183 23.0912 0.015054 0.080573 -3.020363
2011-07-06 08:13:37 51°26.609 3°1.363 23.1492 0.015054 0.080556 -3.020363
2011-07-06 08:14:37 51°26.786 3°1.547 23.1393 0.015054 0.08056 -3.020363
2011-07-06 08:15:37 51°26.966 3°1.73 23.1508 0.015054 0.080577 -3.020363
2011-07-06 08:16:37 51°27.144 3°1.919 23.1707 0.015054 0.080577 -3.020363
2011-07-06 08:17:37 51°27.327 3°2.097 23.1855 0.015054 0.080575 -3.020363
2011-07-06 08:18:37 51°27.508 3°2.288 23.1895 0.015054 0.080576 -3.020363
2011-07-06 08:19:37 51°27.689 3°2.477 23.1662 0.015054 0.08058 -3.020363
2011-07-06 08:20:37 51°27.865 3°2.676 23.2283 0.015054 0.080589 -3.020363
2011-07-06 08:21:37 51°28.041 3°2.876 23.1954 0.015054 0.080587 -3.020363
2011-07-06 08:22:37 51°28.219 3°3.061 23.2631 0.015054 0.080581 -3.020363
2011-07-06 08:23:37 51°28.4 3°3.241 23.2459 0.015054 0.080593 -3.020363
2011-07-06 08:24:37 51°28.568 3°3.441 23.2464 0.015054 0.080603 -3.020363
2011-07-06 08:25:37 51°28.741 3°3.635 23.2143 0.015054 0.080597 -3.020363
2011-07-06 08:26:37 51°28.916 3°3.822 23.2585 0.015054 0.080595 -3.020363
2011-07-06 08:27:37 51°29.093 3°4.001 23.2612 0.015054 0.080612 -3.020363
2011-07-06 08:28:37 51°29.27 3°4.182 23.2878 0.015054 0.080608 -3.020363
2011-07-06 08:29:37 51°29.446 3°4.359 23.2444 0.015054 0.080607 -3.020363
2011-07-06 08:30:37 51°29.628 3°4.534 23.3033 0.015054 0.080603 -3.020363
2011-07-06 08:31:37 51°29.798 3°4.691 23.3021 0.014952 0.080082 -3.020363
2011-07-06 08:32:37 51°29.88 3°4.755 23.3255 0.014952 0.080088 -3.020363
2011-07-06 08:33:37 51°29.906 3°4.758 23.3215 0.014952 0.080088 -3.020363
2011-07-06 08:34:37 51°29.925 3°4.751 23.34 0.014952 0.080092 -3.020363
2011-07-06 08:35:37 51°29.941 3°4.743 23.3468 0.014952 0.080091 -3.020363
2011-07-06 08:36:37 51°29.953 3°4.743 23.3483 0.014952 0.080102 -3.020363
2011-07-06 08:37:37 51°29.961 3°4.746 23.3562 0.014952 0.080112 -3.020363
2011-07-06 08:38:37 51°29.968 3°4.75 23.3648 0.014952 0.080126 -3.020363
2011-07-06 08:39:37 51°29.974 3°4.751 23.353 0.014952 0.080139 -3.020363
2011-07-06 08:40:37 51°29.98 3°4.753 23.3675 0.014952 0.080154 -3.020363
2011-07-06 08:41:37 51°29.987 3°4.753 23.3752 0.014952 0.08017 -3.020363
2011-07-06 08:42:37 51°29.996 3°4.753 23.3879 0.014952 0.080186 -3.020363
2011-07-06 08:43:37 51°30.004 3°4.749 23.394 0.014952 0.0802 -3.020363
2011-07-06 08:44:37 51°30.013 3°4.744 23.4018 0.014952 0.080215 -3.020363
2011-07-06 08:45:37 51°30.023 3°4.742 23.3943 0.014952 0.08023 -3.020363
2011-07-06 08:46:37 51°30.031 3°4.742 23.4099 0.014952 0.080245 -3.020363
2011-07-06 08:47:37 51°30.04 3°4.741 23.4045 0.014952 0.080262 -3.020363
2011-07-06 08:48:37 51°30.048 3°4.742 23.4263 0.014952 0.080279 -3.020363
2011-07-06 08:49:37 51°30.057 3°4.742 23.4326 0.014952 0.080297 -3.020363
2011-07-06 08:50:37 51°30.066 3°4.741 23.436 0.014952 0.080314 -3.020363
2011-07-06 08:51:37 51°30.074 3°4.738 23.4483 0.014952 0.080333 -3.020363
2011-07-06 08:52:37 51°30.082 3°4.738 23.4434 0.014952 0.08035 -3.020363
2011-07-06 08:53:37 51°30.089 3°4.737 23.4452 0.014849 0.079841 -3.020363
2011-07-06 08:54:37 51°30.096 3°4.736 23.4621 0.014849 0.079859 -3.020363
2011-07-06 08:55:37 51°30.103 3°4.734 23.4774 0.014849 0.079876 -3.020363
2011-07-06 08:56:37 51°30.111 3°4.732 23.4797 0.014849 0.079892 -3.020363
2011-07-06 08:57:37 51°30.12 3°4.728 23.4787 0.014849 0.079909 -3.020363
2011-07-06 08:58:37 51°30.128 3°4.724 23.4819 0.014849 0.079923 -3.020363
2011-07-06 08:59:37 51°30.135 3°4.722 23.4907 0.014849 0.079937 -3.020363
2011-07-06 09:00:37 51°30.141 3°4.719 23.4772 0.014849 0.07991 -3.020363
2011-07-06 09:01:37 51°30.146 3°4.72 23.4977 0.014849 0.079964 -3.020363
2011-07-06 09:02:37 51°30.151 3°4.721 23.5047 0.014849 0.079984 -3.020363
2011-07-06 09:03:37 51°30.155 3°4.722 23.5117 0.014849 0.080002 -3.020363
2011-07-06 09:04:37 51°30.159 3°4.72 23.5198 0.014849 0.080022 -3.020363
2011-07-06 09:05:37 51°30.165 3°4.717 23.5289 0.014849 0.080042 -3.020363
2011-07-06 09:06:37 51°30.185 3°4.703 23.5367 0.014746 0.079532 -3.020363
2011-07-06 09:07:37 51°30.225 3°4.686 23.5428 0.014746 0.079554 -3.020363
2011-07-06 09:08:37 51°30.262 3°4.681 23.5553 0.014746 0.07957 -3.020363
2011-07-06 09:09:37 51°30.298 3°4.688 23.5612 0.014746 0.079585 -3.020363
2011-07-06 09:10:37 51°30.33 3°4.704 23.5786 0.014746 0.079596 -3.020363
2011-07-06 09:11:37 51°30.355 3°4.734 23.5864 0.014746 0.079606 -3.020363
2011-07-06 09:12:37 51°30.368 3°4.772 18.1579 4.613392 33.717118 -3.020363
2011-07-06 09:13:37 51°30.372 3°4.805 18.1407 4.446902 33.423229 -3.020363
2011-07-06 09:14:37 51°30.368 3°4.833 18.1328 4.429374 33.331076 -3.020363
2011-07-06 09:15:37 51°30.36 3°4.86 18.1362 4.426573 33.321005 -3.020363
2011-07-06 09:16:37 51°30.351 3°4.884 18.1383 4.431656 33.369603 -3.020363
2011-07-06 09:17:37 51°30.341 3°4.907 18.1381 4.432071 33.376965 -3.020363
2011-07-06 09:18:37 51°30.325 3°4.936 18.1407 4.42481 33.318378 -3.020363
2011-07-06 09:19:37 51°30.306 3°4.971 18.1418 4.429685 33.357512 -3.020363
2011-07-06 09:20:37 51°30.289 3°4.999 18.1491 4.432382 33.380231 -3.020363
2011-07-06 09:21:37 51°30.271 3°5.019 18.1552 4.431863 33.369418 -3.020363
2011-07-06 09:22:37 51°30.252 3°5.037 18.168 4.431759 33.365967 -3.020363
2011-07-06 09:23:37 51°30.22 3°5.061 18.1707 4.431241 33.354516 -3.020363
2011-07-06 09:24:37 51°30.171 3°5.087 18.1778 4.431137 33.351068 -3.020363
2011-07-06 09:25:37 51°30.127 3°5.108 18.1843 4.430514 33.341324 -3.020363
2011-07-06 09:26:37 51°30.083 3°5.119 18.1867 4.429581 33.328321 -3.020363
2011-07-06 09:27:37 51°30.037 3°5.128 18.1903 4.429788 33.326852 -3.020363
2011-07-06 09:28:37 51°30.009 3°5.132 18.1908 4.429788 33.327495 -3.020363
2011-07-06 09:29:37 51°29.997 3°5.132 18.1893 4.428855 33.318996 -3.020363
2011-07-06 09:30:37 51°29.993 3°5.131 18.1928 4.429581 33.323821 -3.020363
2011-07-06 09:31:37 51°29.992 3°5.131 18.1924 4.429788 33.323638 -3.020363
2011-07-06 09:32:37 51°29.944 3°5.149 18.2053 4.429373 33.318219 -3.020363
2011-07-06 09:33:37 51°29.842 3°5.092 18.2017 4.428647 33.305686 -3.020363
2011-07-06 09:34:37 51°29.753 3°4.844 18.1926 4.428647 33.308897 -3.020363
2011-07-06 09:35:37 51°29.676 3°4.517 18.1693 4.430203 33.332273 -3.020363
2011-07-06 09:36:37 51°29.593 3°4.191 18.1586 4.431033 33.355344 -3.020363
2011-07-06 09:37:37 51°29.507 3°3.869 18.1459 4.431241 33.366753 -3.020363
2011-07-06 09:38:37 51°29.418 3°3.547 18.1138 4.432693 33.394462 -3.020363
2011-07-06 09:39:37 51°29.338 3°3.22 18.0903 4.433835 33.426037 -3.020363
2011-07-06 09:40:37 51°29.258 3°2.891 18.0764 4.434872 33.453545 -3.020363
2011-07-06 09:41:37 51°29.166 3°2.57 18.0804 4.436221 33.473993 -3.020363
2011-07-06 09:42:37 51°29.076 3°2.246 18.0961 4.437984 33.483047 -3.020363
2011-07-06 09:43:37 51°28.989 3°1.92 18.0997 4.438606 33.477288 -3.020363
2011-07-06 09:44:37 51°28.901 3°1.594 18.1102 4.438295 33.4779 -3.020363
2011-07-06 09:45:37 51°28.823 3°1.265 18.1175 4.438191 33.477672 -3.020363
2011-07-06 09:46:37 51°28.735 3°0.94 18.1251 4.438295 33.470777 -3.020363
2011-07-06 09:47:37 51°28.649 3°0.616 18.1271 4.438399 33.46518 -3.020363
2011-07-06 09:48:37 51°28.564 3°0.293 18.0951 4.44037 33.49152 -3.020363
2011-07-06 09:49:37 51°28.455 2°59.987 18.1031 4.442133 33.518721 -3.020363
2011-07-06 09:50:37 51°28.347 2°59.682 18.1173 4.440266 33.495828 -3.020363
2011-07-06 09:51:37 51°28.247 2°59.37 18.1357 4.437984 33.46621 -3.020363
2011-07-06 09:52:37 51°28.146 2°59.058 18.145 4.433627 33.41718 -3.020363
2011-07-06 09:53:37 51°28.036 2°58.752 18.1615 4.433005 33.400311 -3.020363
2011-07-06 09:54:37 51°27.934 2°58.439 18.1699 4.432382 33.386034 -3.020363
2011-07-06 09:55:37 51°27.832 2°58.125 18.1669 4.433004 33.38354 -3.020363
2011-07-06 09:56:37 51°27.718 2°57.817 18.1613 4.438606 33.439128 -3.020363
2011-07-06 09:57:37 51°27.614 2°57.5 18.1368 4.442859 33.486621 -3.020363
2011-07-06 09:58:37 51°27.503 2°57.188 18.1412 4.444622 33.51315 -3.020363
2011-07-06 09:59:37 51°27.397 2°56.873 18.144 4.446074 33.520865 -3.020363
2011-07-06 10:00:37 51°27.291 2°56.553 18.1428 4.448356 33.535579 -3.020363
2011-07-06 10:01:37 51°27.178 2°56.24 18.139 4.44846 33.535157 -3.020363
2011-07-06 10:02:37 51°27.072 2°55.92 18.1239 4.45012 33.558238 -3.020363
2011-07-06 10:03:37 51°26.958 2°55.608 18.1051 4.45375 33.603168 -3.020363
2011-07-06 10:04:37 51°26.844 2°55.296 18.0921 4.455929 33.630668 -3.020363
2011-07-06 10:05:37 51°26.745 2°54.969 18.0731 4.45707 33.654633 -3.020363
2011-07-06 10:06:37 51°26.647 2°54.639 18.069 4.457589 33.66749 -3.020363
2011-07-06 10:07:37 51°26.55 2°54.305 18.0564 4.457485 33.673134 -3.020363
2011-07-06 10:08:37 51°26.443 2°53.981 18.072 4.454373 33.652044 -3.020363
2011-07-06 10:09:37 51°26.341 2°53.656 18.0885 4.454684 33.643594 -3.020363
2011-07-06 10:10:37 51°26.247 2°53.328 18.0952 4.453647 33.623107 -3.020363
2011-07-06 10:11:37 51°26.126 2°53.033 18.1095 4.452817 33.610891 -3.020363
2011-07-06 10:12:37 51°25.926 2°52.909 18.1203 4.452298 33.600007 -3.020363
2011-07-06 10:13:37 51°25.723 2°52.982 18.1165 4.451365 33.587574 -3.020363
2011-07-06 10:14:37 51°25.541 2°53.139 18.12 4.450327 33.57362 -3.020363
2011-07-06 10:15:37 51°25.371 2°53.328 18.131 4.451572 33.577633 -3.020363
2011-07-06 10:16:37 51°25.205 2°53.526 18.1386 4.453024 33.578202 -3.020363
2011-07-06 10:17:37 51°25.038 2°53.723 18.1254 4.454061 33.588253 -3.020363
2011-07-06 10:18:37 51°24.867 2°53.914 18.1532 4.454684 33.598701 -3.020363
2011-07-06 10:19:37 51°24.696 2°54.104 18.1367 4.455928 33.600761 -3.020363
2011-07-06 10:20:37 51°24.525 2°54.292 18.1291 4.455306 33.599407 -3.020363
2011-07-06 10:21:37 51°24.355 2°54.483 18.1501 4.45375 33.586926 -3.020363
2011-07-06 10:22:37 51°24.183 2°54.668 18.1786 4.448045 33.518054 -3.020363
2011-07-06 10:23:37 51°24.011 2°54.853 18.2043 4.435597 33.391847 -3.020363
2011-07-06 10:24:37 51°23.844 2°55.047 18.2144 4.433315 33.357177 -3.020363
2011-07-06 10:25:37 51°23.681 2°55.248 18.2302 4.43207 33.341555 -3.020363
2011-07-06 10:26:37 51°23.517 2°55.449 18.2526 4.424602 33.256269 -3.020363
2011-07-06 10:27:37 51°23.351 2°55.65 18.2643 4.422216 33.22917 -3.020363
2011-07-06 10:28:37 51°23.166 2°55.802 18.3252 4.415681 33.154458 -3.020363
2011-07-06 10:29:37 51°22.968 2°55.911 18.3894 4.403026 32.994881 -3.020363
2011-07-06 10:30:37 51°22.762 2°55.988 18.4199 4.392861 32.867426 -3.020363
2011-07-06 10:31:37 51°22.552 2°56.047 18.4227 4.390268 32.829366 -3.020363
2011-07-06 10:32:37 51°22.344 2°56.111 18.4991 4.384771 32.76583 -3.020363
2011-07-06 10:33:37 51°22.166 2°56.218 18.5162 4.372221 32.612926 -3.020363
2011-07-06 10:34:37 51°22.225 2°56.44 18.5369 4.368695 32.570451 -3.020363
2011-07-06 10:35:37 51°22.335 2°56.679 18.5556 4.372428 32.582885 -3.020363
2011-07-06 10:36:37 51°22.44 2°56.93 18.5652 4.372531 32.569444 -3.020363
2011-07-06 10:37:37 51°22.537 2°57.191 18.5708 4.37305 32.56568 -3.020363
2011-07-06 10:38:37 51°22.619 2°57.461 18.5836 4.372324 32.554668 -3.020363
2011-07-06 10:39:37 51°22.711 2°57.729 18.6248 4.370664 32.538997 -3.020363
2011-07-06 10:40:37 51°22.803 2°57.996 18.6729 4.372634 32.508888 -3.020363
2011-07-06 10:41:37 51°22.896 2°58.267 18.7051 4.371804 32.471696 -3.020363
2011-07-06 10:42:37 51°22.988 2°58.536 18.7195 4.372011 32.449963 -3.020363
2011-07-06 10:43:37 51°23.08 2°58.805 18.7129 4.371596 32.436659 -3.020363
2011-07-06 10:44:37 51°23.175 2°59.073 18.7326 4.369729 32.42241 -3.020363
2011-07-06 10:45:37 51°23.266 2°59.347 18.7467 4.366825 32.390332 -3.020363
2011-07-06 10:46:37 51°23.355 2°59.619 18.7632 4.364958 32.358265 -3.020363
2011-07-06 10:47:37 51°23.439 2°59.901 18.7777 4.364439 32.339238 -3.020363
2011-07-06 10:48:37 51°23.542 3°0.164 18.7928 4.361639 32.312375 -3.020363
2011-07-06 10:49:37 51°23.635 3°0.433 18.8071 4.361016 32.294973 -3.020363
2011-07-06 10:50:37 51°23.731 3°0.701 18.8263 4.359046 32.273161 -3.020363
2011-07-06 10:51:37 51°23.83 3°0.967 18.8025 4.359253 32.269983 -3.020363
2011-07-06 10:52:37 51°23.928 3°1.233 18.7905 4.359046 32.267656 -3.020363
2011-07-06 10:53:37 51°24.025 3°1.498 18.8057 4.359046 32.273773 -3.020363
2011-07-06 10:54:37 51°24.126 3°1.768 18.7899 4.358942 32.276586 -3.020363
2011-07-06 10:55:37 51°24.23 3°2.037 18.7899 4.359668 32.280756 -3.020363
2011-07-06 10:56:37 51°24.333 3°2.307 18.7777 4.360705 32.291786 -3.020363
2011-07-06 10:57:37 51°24.447 3°2.559 18.7819 4.361846 32.306739 -3.020363
2011-07-06 10:58:37 51°24.608 3°2.745 18.7832 4.364231 32.32403 -3.020363
2011-07-06 10:59:37 51°24.744 3°2.973 18.7569 4.368587 32.364381 -3.020363
2011-07-06 11:00:37 51°24.837 3°3.249 18.7451 4.372217 32.411034 -3.020363
2011-07-06 11:01:37 51°24.927 3°3.531 18.7443 4.374084 32.432655 -3.020363
2011-07-06 11:02:37 51°25.013 3°3.813 18.7234 4.375536 32.450848 -3.020363
2011-07-06 11:03:37 51°25.102 3°4.093 18.7112 4.3773 32.483349 -3.020363
2011-07-06 11:04:37 51°25.188 3°4.376 18.6928 4.380515 32.516813 -3.020363
2011-07-06 11:05:37 51°25.272 3°4.658 18.663 4.382071 32.546422 -3.020363
2011-07-06 11:06:37 51°25.36 3°4.934 18.6436 4.383731 32.584366 -3.020363
2011-07-06 11:07:37 51°25.453 3°5.207 18.6417 4.385494 32.61081 -3.020363
2011-07-06 11:08:37 51°25.532 3°5.489 18.6433 4.386946 32.624743 -3.020363
2011-07-06 11:09:37 51°25.615 3°5.764 18.6595 4.388294 32.631602 -3.020363
2011-07-06 11:10:37 51°25.7 3°6.044 18.6801 4.39068 32.632793 -3.020363
2011-07-06 11:11:37 51°25.784 3°6.325 18.6843 4.392443 32.639369 -3.020363
2011-07-06 11:12:37 51°25.874 3°6.599 18.6773 4.394932 32.653836 -3.020363
2011-07-06 11:13:37 51°25.962 3°6.874 18.6598 4.400532 32.705338 -3.020363
2011-07-06 11:14:37 51°26.042 3°7.156 18.6507 4.409038 32.790989 -3.020363
2011-07-06 11:15:37 51°26.127 3°7.427 18.6489 4.413809 32.840669 -3.020363
2011-07-06 11:16:37 51°26.195 3°7.71 18.6483 4.417439 32.868997 -3.020363
2011-07-06 11:17:37 51°26.264 3°7.995 18.654 4.419099 32.888441 -3.020363
2011-07-06 11:18:37 51°26.293 3°8.202 18.6577 4.41941 32.881012 -3.020363
2011-07-06 11:19:37 51°26.226 3°8.265 18.66 4.41858 32.869728 -3.020363
2011-07-06 11:20:37 51°26.159 3°8.241 18.6653 4.41858 32.868477 -3.020363
2011-07-06 11:21:37 51°26.124 3°8.187 18.652 4.418891 32.875446 -3.020363
2011-07-06 11:22:37 51°26.11 3°8.177 18.6533 4.418684 32.878101 -3.020363
2011-07-06 11:23:41 51°26.096 3°8.177 18.6468 4.418787 32.880842 -3.020363
2011-07-06 11:24:39 51°26.082 3°8.179 18.6389 4.412357 32.834215 -3.020363
2011-07-06 11:25:37 51°26.067 3°8.182 18.6349 4.417958 32.885209 -3.020363
2011-07-06 11:26:37 51°26.053 3°8.185 18.6355 4.417854 32.884972 -3.020363
2011-07-06 11:27:37 51°26.04 3°8.185 18.6325 4.417854 32.886851 -3.020363
2011-07-06 11:28:37 51°26.025 3°8.185 18.6354 4.417647 32.885124 -3.020363
2011-07-06 11:29:37 51°26.011 3°8.188 18.6317 4.417336 32.884413 -3.020363
2011-07-06 11:30:37 51°25.996 3°8.194 18.634 4.417232 32.882923 -3.020363
2011-07-06 11:31:37 51°25.98 3°8.204 18.6386 4.417128 32.880807 -3.020363
2011-07-06 11:32:37 51°25.963 3°8.214 18.6405 4.417024 32.878691 -3.020363
2011-07-06 11:33:37 51°25.946 3°8.224 18.6369 4.417232 32.878539 -3.020363
2011-07-06 11:34:37 51°25.929 3°8.235 18.6391 4.416921 32.877202 -3.020363
2011-07-06 11:35:37 51°25.915 3°8.244 18.6335 4.416921 32.876575 -3.020363
2011-07-06 11:36:37 51°25.901 3°8.254 18.6374 4.416402 32.876643 -3.020363
2011-07-06 11:37:37 51°25.888 3°8.267 18.6304 4.415987 32.875068 -3.020363
2011-07-06 11:38:37 51°25.874 3°8.281 18.6246 4.415676 32.875609 -3.020363
2011-07-06 11:39:37 51°25.86 3°8.295 18.6281 4.415365 32.874272 -3.020363
2011-07-06 11:40:37 51°25.846 3°8.309 18.6225 4.415365 32.874272 -3.020363
2011-07-06 11:41:37 51°25.833 3°8.323 18.625 4.414846 32.873086 -3.020363
2011-07-06 11:42:37 51°25.82 3°8.337 18.62 4.414639 32.873238 -3.020363
2011-07-06 11:43:37 51°25.805 3°8.352 18.5964 4.41412 32.8708 -3.020363
2011-07-06 11:44:37 51°25.79 3°8.365 18.601 4.412876 32.866074 -3.020363
2011-07-06 11:45:37 51°25.774 3°8.377 18.5965 4.412254 32.864023 -3.020363
2011-07-06 11:46:37 51°25.759 3°8.388 18.5942 4.412357 32.862381 -3.020363
2011-07-06 11:47:37 51°25.744 3°8.398 18.5918 4.412046 32.862296 -3.020363
2011-07-06 11:48:37 51°25.731 3°8.408 18.5865 4.411009 32.859296 -3.020363
2011-07-06 11:49:37 51°25.738 3°8.392 18.5988 4.410802 32.855062 -3.020363
2011-07-06 11:50:37 51°25.833 3°8.246 18.6092 4.411113 32.848885 -3.020363
2011-07-06 11:51:37 51°25.974 3°8.048 18.6097 4.409764 32.831399 -3.020363
2011-07-06 11:52:37 51°26.121 3°7.846 18.609 4.407379 32.811541 -3.020363
2011-07-06 11:53:37 51°26.268 3°7.643 18.6085 4.404786 32.789333 -3.020363
2011-07-06 11:54:37 51°26.382 3°7.541 18.5997 4.402504 32.769718 -3.020363
2011-07-06 11:55:37 51°26.421 3°7.586 18.5873 4.403334 32.784745 -3.020363
2011-07-06 11:56:37 51°26.427 3°7.657 18.58 4.401986 32.781019 -3.020363
2011-07-06 11:57:37 51°26.418 3°7.735 18.5716 4.401467 32.782327 -3.020363
2011-07-06 11:58:37 51°26.394 3°7.809 18.5635 4.400637 32.782295 -3.020363
2011-07-06 11:59:37 51°26.362 3°7.875 18.558 4.400223 32.783842 -3.020363
2011-07-06 12:00:37 51°26.323 3°7.933 18.5581 4.3996 32.782411 -3.020363
2011-07-06 12:01:37 51°26.283 3°7.988 18.5613 4.399704 32.781399 -3.020363
2011-07-06 12:02:37 51°26.24 3°8.037 18.5636 4.399912 32.780625 -3.020363
2011-07-06 12:03:37 51°26.197 3°8.084 18.5668 4.400015 32.778988 -3.020363
2011-07-06 12:04:37 51°26.157 3°8.13 18.5687 4.400223 32.778214 -3.020363
2011-07-06 12:05:37 51°26.12 3°8.169 18.5709 4.40043 32.778691 -3.020363
2011-07-06 12:06:37 51°26.083 3°8.202 18.572 4.400534 32.778305 -3.020363
2011-07-06 12:07:37 51°26.044 3°8.242 18.573 4.400741 32.778782 -3.020363
2011-07-06 12:08:37 51°26.004 3°8.292 18.575 4.400845 32.779646 -3.020363
2011-07-06 12:09:37 51°25.961 3°8.341 18.5744 4.401052 32.780123 -3.020363
2011-07-06 12:10:37 51°25.915 3°8.39 18.5723 4.400949 32.779884 -3.020363
2011-07-06 12:11:37 51°25.875 3°8.43 18.5764 4.401052 32.780748 -3.020363
2011-07-06 12:12:37 51°25.843 3°8.458 18.5757 4.401363 32.780838 -3.020363
2011-07-06 12:13:37 51°25.815 3°8.54 18.5768 4.401467 32.782327 -3.020363
2011-07-06 12:14:37 51°25.86 3°8.573 18.5728 4.401052 32.781373 -3.020363
2011-07-06 12:15:37 51°25.869 3°8.483 18.5665 4.400223 32.777589 -3.020363
2011-07-06 12:16:37 51°25.798 3°8.377 18.5727 4.400015 32.777112 -3.020363
2011-07-06 12:17:37 51°25.663 3°8.217 18.5812 4.400845 32.77902 -3.020363
2011-07-06 12:18:37 51°25.51 3°8.008 18.5919 4.402815 32.789178 -3.020363
2011-07-06 12:19:37 51°25.339 3°7.797 18.5997 4.406134 32.809309 -3.020363
2011-07-06 12:20:37 51°25.152 3°7.62 18.6061 4.410594 32.838307 -3.020363
2011-07-06 12:21:37 51°24.939 3°7.593 18.6034 4.414743 32.870343 -3.020363
2011-07-06 12:22:37 51°24.732 3°7.71 18.5969 4.418477 32.902687 -3.020363
2011-07-06 12:23:37 51°24.558 3°7.903 18.5914 4.420344 32.923882 -3.020363
2011-07-06 12:24:37 51°24.447 3°8.191 18.5866 4.419618 32.9216 -3.020363
2011-07-06 12:25:37 51°24.351 3°8.494 18.5804 4.419203 32.920654 -3.020363
2011-07-06 12:26:37 51°24.25 3°8.793 18.5525 4.42024 32.936203 -3.020363
2011-07-06 12:27:37 51°24.123 3°9.056 18.5979 4.41744 32.931082 -3.020363
2011-07-06 12:28:37 51°23.988 3°9.302 18.6053 4.394621 32.705997 -3.020363
2011-07-06 12:29:37 51°23.857 3°9.556 18.6069 4.383524 32.609333 -3.020363
2011-07-06 12:30:37 51°23.728 3°9.809 18.6075 4.377612 32.558319 -3.020363
2011-07-06 12:31:37 51°23.601 3°10.068 18.6057 4.375123 32.536388 -3.020363
2011-07-06 12:32:37 51°23.473 3°10.326 18.6068 4.372842 32.520521 -3.020363
2011-07-06 12:33:37 51°23.341 3°10.574 18.6028 4.36693 32.468297 -3.020363
2011-07-06 12:34:37 51°23.197 3°10.806 18.6234 4.363404 32.440234 -3.020363
2011-07-06 12:35:37 51°23.008 3°10.943 18.628 4.374293 32.514628 -3.020363
2011-07-06 12:36:37 51°22.81 3°11.036 18.6539 4.368278 32.462187 -3.020363
2011-07-06 12:37:37 51°22.613 3°11.133 18.7113 4.355625 32.333742 -3.020363
2011-07-06 12:38:37 51°22.543 3°11.267 18.6784 4.347951 32.265796 -3.020363
2011-07-06 12:39:37 51°22.549 3°11.44 18.6862 4.333432 32.148501 -3.020363
2011-07-06 12:40:37 51°22.529 3°11.67 18.6847 4.326899 32.09192 -3.020363
2011-07-06 12:41:37 51°22.562 3°11.739 18.6878 4.323477 32.062959 -3.020363
2011-07-06 12:42:37 51°22.573 3°11.742 18.695 4.321299 32.044919 -3.020363
2011-07-06 12:43:37 51°22.579 3°11.741 18.7013 4.32078 32.03697 -3.020363
2011-07-06 12:44:37 51°22.583 3°11.741 18.6997 4.321506 32.034457 -3.020363
2011-07-06 12:45:37 51°22.586 3°11.744 18.7015 4.320987 32.028338 -3.020363
2011-07-06 12:46:37 51°22.588 3°11.75 18.7025 4.320054 32.020611 -3.020363
2011-07-06 12:47:37 51°22.588 3°11.76 18.71 4.316114 31.988597 -3.020363
2011-07-06 12:48:37 51°22.588 3°11.768 18.7128 4.317773 31.998076 -3.020363
2011-07-06 12:49:37 51°22.588 3°11.775 18.7155 4.318602 32.001295 -3.020363
2011-07-06 12:50:37 51°22.587 3°11.784 18.7201 4.318084 31.995788 -3.020363
2011-07-06 12:51:37 51°22.586 3°11.793 18.7161 4.317876 31.992856 -3.020363
2011-07-06 12:52:37 51°22.585 3°11.803 18.7184 4.31601 31.976802 -3.020363
2011-07-06 12:53:37 51°22.584 3°11.813 18.7189 4.317254 31.986492 -3.020363
2011-07-06 12:54:37 51°22.584 3°11.823 18.723 4.317358 31.986135 -3.020363
2011-07-06 12:55:37 51°22.585 3°11.833 18.7224 4.317358 31.983098 -3.020363
2011-07-06 12:56:37 51°22.585 3°11.844 18.7133 4.316735 31.975521 -3.020363
2011-07-06 12:57:37 51°22.586 3°11.855 18.7262 4.316113 31.969766 -3.020363
2011-07-06 12:58:37 51°22.587 3°11.867 18.716 4.316424 31.965663 -3.020363
2011-07-06 12:59:37 51°22.587 3°11.877 18.7239 4.316009 31.96466 -3.020363
2011-07-06 13:00:37 51°22.588 3°11.888 18.7243 4.316217 31.962734 -3.020363
2011-07-06 13:01:37 51°22.588 3°11.901 18.7253 4.316528 31.965914 -3.020363
2011-07-06 13:02:37 51°22.588 3°11.914 18.727 4.315906 31.962588 -3.020363
2011-07-06 13:03:37 51°22.587 3°11.93 18.7265 4.316113 31.95945 -3.020363
2011-07-06 13:04:37 51°22.587 3°11.945 18.7159 4.315802 31.961124 -3.020363
2011-07-06 13:05:37 51°22.587 3°11.958 18.7252 4.308336 31.898165 -3.020363
2011-07-06 13:06:37 51°22.586 3°11.971 18.7213 4.308336 31.89877 -3.020363
2011-07-06 13:07:37 51°22.585 3°11.986 18.726 4.308128 31.892817 -3.020363
2011-07-06 13:08:37 51°22.584 3°12.002 18.7282 4.308025 31.898014 -3.020363
2011-07-06 13:09:37 51°22.583 3°12.019 18.7171 4.308128 31.895239 -3.020363
2011-07-06 13:10:37 51°22.583 3°12.036 18.7202 4.307714 31.895442 -3.020363
2011-07-06 13:11:37 51°22.584 3°12.051 18.7285 4.308128 31.894028 -3.020363
2011-07-06 13:12:37 51°22.585 3°12.068 18.7279 4.308439 31.892363 -3.020363
2011-07-06 13:13:37 51°22.617 3°12.096 18.7327 4.307817 31.88964 -3.020363
2011-07-06 13:14:37 51°22.649 3°12.148 18.7336 4.307713 31.886967 -3.020363
2011-07-06 13:15:37 51°22.677 3°12.206 18.732 4.308439 31.887522 -3.020363
2011-07-06 13:16:37 51°22.691 3°12.271 18.7263 4.309476 31.900331 -3.020363
2011-07-06 13:17:37 51°22.698 3°12.34 18.7231 4.309476 31.90578 -3.020363
2011-07-06 13:18:37 51°22.702 3°12.41 18.7241 4.309165 31.903813 -3.020363
2011-07-06 13:19:37 51°22.704 3°12.48 18.7224 4.308128 31.892212 -3.020363
2011-07-06 13:20:37 51°22.7 3°12.552 18.7263 4.307817 31.890851 -3.020363
2011-07-06 13:21:37 51°22.691 3°12.618 18.7282 4.307091 31.881824 -3.020363
2011-07-06 13:22:37 51°22.677 3°12.677 18.7248 4.305951 31.87058 -3.020363
2011-07-06 13:23:37 51°22.662 3°12.73 18.7225 4.304914 31.863823 -3.020363
2011-07-06 13:24:37 51°22.647 3°12.779 18.7289 4.30398 31.857317 -3.020363
2011-07-06 13:25:37 51°22.631 3°12.827 18.728 4.30284 31.843659 -3.020363
2011-07-06 13:26:37 51°22.612 3°12.872 18.7198 4.30201 31.839219 -3.020363
2011-07-06 13:27:37 51°22.591 3°12.913 18.719 4.30087 31.832208 -3.020363
2011-07-06 13:28:37 51°22.57 3°12.951 18.7095 4.299418 31.822625 -3.020363
2011-07-06 13:29:37 51°22.548 3°12.986 18.7053 4.298899 31.826193 -3.020363
2011-07-06 13:30:37 51°22.526 3°13.018 18.7026 4.298692 31.828708 -3.020363
2011-07-06 13:31:37 51°22.503 3°13.048 18.704 4.297966 31.82331 -3.020363
2011-07-06 13:32:37 51°22.479 3°13.077 18.7284 4.298381 31.821302 -3.020363
2011-07-06 13:33:37 51°22.457 3°13.107 18.7509 4.30201 31.832575 -3.020363
2011-07-06 13:34:37 51°22.437 3°13.137 18.7523 4.306158 31.857786 -3.020363
2011-07-06 13:35:37 51°22.394 3°13.127 18.7505 4.308646 31.870492 -3.020363
2011-07-06 13:36:37 51°22.36 3°12.926 18.7306 4.308958 31.883944 -3.020363
2011-07-06 13:37:37 51°22.335 3°12.621 18.7366 4.313313 31.929023 -3.020363
2011-07-06 13:38:37 51°22.312 3°12.312 18.732 4.317254 31.965244 -3.020363
2011-07-06 13:39:37 51°22.268 3°12.007 18.7446 4.314558 31.94598 -3.020363
2011-07-06 13:40:37 51°22.221 3°11.705 18.7427 4.310721 31.909407 -3.020363
2011-07-06 13:41:37 51°22.151 3°11.419 18.7525 4.322542 32.006555 -3.020363
2011-07-06 13:42:37 51°22.076 3°11.134 18.7662 4.327727 32.043364 -3.020363
2011-07-06 13:43:37 51°22.007 3°10.845 18.7543 4.334053 32.087167 -3.020363
2011-07-06 13:44:37 51°21.947 3°10.55 18.75 4.340379 32.151081 -3.020363
2011-07-06 13:45:37 51°21.879 3°10.261 18.752 4.344942 32.186403 -3.020363
2011-07-06 13:46:37 51°21.81 3°9.971 18.7198 4.351891 32.255548 -3.020363
2011-07-06 13:47:37 51°21.723 3°9.693 18.7144 4.352202 32.272829 -3.020363
2011-07-06 13:48:37 51°21.649 3°9.404 18.739 4.353343 32.281668 -3.020363
2011-07-06 13:49:37 51°21.569 3°9.12 18.7613 4.354172 32.270768 -3.020363
2011-07-06 13:50:37 51°21.487 3°8.841 18.7664 4.353031 32.247855 -3.020363
2011-07-06 13:51:37 51°21.413 3°8.553 18.7668 4.353757 32.248358 -3.020363
2011-07-06 13:52:37 51°21.325 3°8.276 18.7639 4.354379 32.255343 -3.020363
2011-07-06 13:53:37 51°21.238 3°7.999 18.7578 4.354794 32.263061 -3.020363
2011-07-06 13:54:37 51°21.142 3°7.731 18.7597 4.354794 32.269796 -3.020363
2011-07-06 13:55:37 51°21.035 3°7.477 18.7651 4.35635 32.279614 -3.020363
2011-07-06 13:56:37 51°20.943 3°7.206 18.77 4.360394 32.304523 -3.020363
2011-07-06 13:57:37 51°20.847 3°6.944 18.7628 4.365165 32.342181 -3.020363
2011-07-06 13:58:37 51°20.743 3°6.69 18.7548 4.368899 32.381697 -3.020363
2011-07-06 13:59:37 51°20.65 3°6.428 18.7464 4.371803 32.410057 -3.020363
2011-07-06 14:00:37 51°20.558 3°6.164 18.7568 4.372943 32.423817 -3.020363
2011-07-06 14:01:37 51°20.457 3°5.909 18.7552 4.373151 32.418767 -3.020363
2011-07-06 14:02:37 51°20.357 3°5.655 18.7448 4.372217 32.414724 -3.020363
2011-07-06 14:03:37 51°20.256 3°5.401 18.7513 4.36921 32.391035 -3.020363
2011-07-06 14:04:37 51°20.174 3°5.135 18.7543 4.365269 32.354087 -3.020363
2011-07-06 14:05:37 51°20.083 3°4.877 18.7672 4.361431 32.31924 -3.020363
2011-07-06 14:06:37 51°20 3°4.614 18.7754 4.35832 32.287353 -3.020363
2011-07-06 14:07:37 51°19.916 3°4.353 18.7835 4.356868 32.272273 -3.020363
2011-07-06 14:08:37 51°19.827 3°4.097 18.7922 4.357801 32.26837 -3.020363
2011-07-06 14:09:37 51°19.741 3°3.84 18.7861 4.36029 32.286517 -3.020363
2011-07-06 14:10:37 51°19.661 3°3.581 18.7828 4.364335 32.32305 -3.020363
2011-07-06 14:11:37 51°19.572 3°3.326 18.7773 4.366928 32.351257 -3.020363
2011-07-06 14:12:37 51°19.48 3°3.079 18.7681 4.367135 32.356656 -3.020363
2011-07-06 14:13:37 51°19.399 3°2.823 18.7821 4.366306 32.3504 -3.020363
2011-07-06 14:14:37 51°19.312 3°2.574 18.7745 4.369106 32.372358 -3.020363
2011-07-06 14:15:37 51°19.228 3°2.322 18.7753 4.368484 32.36782 -3.020363
2011-07-06 14:16:37 51°19.15 3°2.063 18.7917 4.366617 32.348068 -3.020363
2011-07-06 14:17:37 51°19.06 3°1.82 18.7938 4.36195 32.30086 -3.020363
2011-07-06 14:18:37 51°18.973 3°1.577 18.8018 4.361327 32.289589 -3.020363
2011-07-06 14:19:37 51°18.895 3°1.325 18.8178 4.35832 32.257372 -3.020363
2011-07-06 14:20:37 51°18.827 3°1.067 18.8204 4.354482 32.220756 -3.020363
2011-07-06 14:21:37 51°18.759 3°0.812 18.8224 4.351786 32.191146 -3.020363
2011-07-06 14:22:37 51°18.685 3°0.556 18.8332 4.35106 32.182099 -3.020363
2011-07-06 14:23:37 51°18.614 3°0.3 18.8336 4.350749 32.175263 -3.020363
2011-07-06 14:24:37 51°18.548 3°0.044 18.8318 4.35023 32.16976 -3.020363
2011-07-06 14:25:37 51°18.472 2°59.79 18.8394 4.349608 32.163401 -3.020363
2011-07-06 14:26:37 51°18.433 2°59.64 18.8367 4.350956 32.173322 -3.020363
2011-07-06 14:27:37 51°18.446 2°59.621 18.8315 4.350126 32.170122 -3.020363
2011-07-06 14:28:40 51°18.463 2°59.671 18.8288 4.349608 32.167664 -3.020363
2011-07-06 14:29:41 51°18.475 2°59.735 18.8251 4.348571 32.16214 -3.020363
2011-07-06 14:30:40 51°18.484 2°59.791 18.8227 4.346186 32.142431 -3.020363
2011-07-06 14:31:39 51°18.495 2°59.847 18.8228 4.34743 32.155758 -3.020363
2011-07-06 14:32:38 51°18.508 2°59.903 18.8281 4.347223 32.153435 -3.020363
2011-07-06 14:33:37 51°18.523 2°59.957 18.8336 4.349297 32.166312 -3.020363
2011-07-06 14:34:37 51°18.538 3°0.013 18.8409 4.349815 32.166333 -3.020363
2011-07-06 14:35:37 51°18.554 3°0.069 18.8525 4.3522 32.167163 -3.020363
2011-07-06 14:36:37 51°18.57 3°0.127 18.8369 4.353341 32.171106 -3.020363
2011-07-06 14:37:37 51°18.584 3°0.186 18.8374 4.352097 32.173003 -3.020363
2011-07-06 14:38:37 51°18.597 3°0.249 18.835 4.352511 32.170341 -3.020363
2011-07-06 14:39:37 51°18.611 3°0.312 18.8334 4.3522 32.174468 -3.020363
2011-07-06 14:40:37 51°18.627 3°0.372 18.847 4.352822 32.172302 -3.020363
2011-07-06 14:41:37 51°18.644 3°0.431 18.8471 4.353548 32.176471 -3.020363
2011-07-06 14:42:37 51°18.661 3°0.492 18.8382 4.353445 32.178049 -3.020363
2011-07-06 14:43:37 51°18.678 3°0.554 18.8302 4.353237 32.179989 -3.020363
2011-07-06 14:44:37 51°18.695 3°0.616 18.8342 4.352719 32.180578 -3.020363
2011-07-06 14:45:37 51°18.711 3°0.678 18.8318 4.352822 32.180826 -3.020363
2011-07-06 14:46:37 51°18.727 3°0.741 18.8318 4.352926 32.182291 -3.020363
2011-07-06 14:47:37 51°18.746 3°0.804 18.8456 4.35303 32.18193 -3.020363
2011-07-06 14:48:37 51°18.765 3°0.865 18.8466 4.354171 32.183436 -3.020363
2011-07-06 14:49:37 51°18.783 3°0.927 18.8422 4.354378 32.18454 -3.020363
2011-07-06 14:50:37 51°18.802 3°0.991 18.8394 4.354171 32.184654 -3.020363
2011-07-06 14:51:37 51°18.822 3°1.053 18.8413 4.353859 32.185129 -3.020363
2011-07-06 14:52:37 51°18.842 3°1.119 18.8347 4.353756 32.184272 -3.020363
2011-07-06 14:53:37 51°18.863 3°1.185 18.8415 4.353548 32.184386 -3.020363
2011-07-06 14:54:37 51°18.885 3°1.251 18.8391 4.354171 32.184654 -3.020363
2011-07-06 14:55:37 51°18.906 3°1.318 18.8376 4.353963 32.185985 -3.020363
2011-07-06 14:56:37 51°18.926 3°1.385 18.8461 4.354067 32.185624 -3.020363
2011-07-06 14:57:37 51°18.946 3°1.455 18.8441 4.354482 32.186005 -3.020363
2011-07-06 14:58:37 51°18.965 3°1.525 18.8365 4.354274 32.18551 -3.020363
2011-07-06 14:59:37 51°18.986 3°1.595 18.839 4.353341 32.181455 -3.020363
2011-07-06 15:00:37 51°19.008 3°1.664 18.8476 4.353652 32.18098 -3.020363
2011-07-06 15:01:37 51°19.051 3°1.735 18.8479 4.354585 32.180165 -3.020363
2011-07-06 15:02:37 51°19.098 3°1.84 18.8363 4.354378 32.182104 -3.020363
2011-07-06 15:03:37 51°19.117 3°1.964 18.8368 4.352822 32.176563 -3.020363
2011-07-06 15:04:37 51°19.108 3°2.073 18.8479 4.353133 32.174871 -3.020363
2011-07-06 15:05:37 51°19.089 3°2.173 18.8604 4.35303 32.164279 -3.020363
2011-07-06 15:06:37 51°19.076 3°2.258 18.8797 4.345148 32.085871 -3.020363
2011-07-06 15:07:37 51°19.064 3°2.333 18.8953 4.344422 32.070184 -3.020363
2011-07-06 15:08:37 51°19.053 3°2.403 18.899 4.34494 32.067795 -3.020363
2011-07-06 15:09:37 51°19.043 3°2.47 18.8983 4.345251 32.061276 -3.020363
2011-07-06 15:10:37 51°19.034 3°2.536 18.9254 4.345355 32.061525 -3.020363
2011-07-06 15:11:37 51°19.025 3°2.6 18.9446 4.346288 32.052878 -3.020363
2011-07-06 15:12:37 51°19.017 3°2.664 18.9502 4.347739 32.047907 -3.020363
2011-07-06 15:13:37 51°19.01 3°2.728 18.9483 4.347739 32.051534 -3.020363
2011-07-06 15:14:37 51°19.005 3°2.79 18.9514 4.347428 32.046554 -3.020363
2011-07-06 15:15:37 51°19.004 3°2.851 18.9331 4.347739 32.046094 -3.020363
2011-07-06 15:16:37 51°18.996 3°2.909 18.9531 4.346702 32.047224 -3.020363
2011-07-06 15:17:37 51°18.993 3°2.964 18.9686 4.347843 32.040301 -3.020363
2011-07-06 15:18:37 51°18.984 3°3.012 18.9543 4.348569 32.039634 -3.020363
2011-07-06 15:19:37 51°18.883 3°2.952 18.9659 4.347739 32.043677 -3.020363
2011-07-06 15:20:38 51°18.777 3°2.782 18.9865 4.348983 32.035802 -3.020363
2011-07-06 15:21:37 51°18.693 3°2.582 19.0047 4.350435 32.035074 -3.020363
2011-07-06 15:22:37 51°18.61 3°2.381 19.0131 4.35199 32.039424 -3.020363
2011-07-06 15:23:37 51°18.528 3°2.17 19.013 4.353857 32.046331 -3.020363
2011-07-06 15:24:37 51°18.45 3°1.962 19.0139 4.354894 32.054859 -3.020363
2011-07-06 15:25:37 51°18.37 3°1.755 19.0002 4.357279 32.077495 -3.020363
2011-07-06 15:26:37 51°18.298 3°1.532 19.002 4.357176 32.085702 -3.020363
2011-07-06 15:27:37 51°18.225 3°1.314 18.9929 4.361428 32.118269 -3.020363
2011-07-06 15:28:37 51°18.146 3°1.087 18.9868 4.361635 32.125421 -3.020363
2011-07-06 15:29:37 51°18.064 3°0.859 18.9836 4.361013 32.126956 -3.020363
2011-07-06 15:30:37 51°17.978 3°0.645 18.981 4.359562 32.127716 -3.020363
2011-07-06 15:31:37 51°17.897 3°0.428 18.9734 4.359976 32.136584 -3.020363
2011-07-06 15:32:37 51°17.819 3°0.201 18.9703 4.362466 32.161327 -3.020363
2011-07-06 15:33:37 51°17.739 2°59.97 18.9632 4.368377 32.213673 -3.020363
2011-07-06 15:34:37 51°17.658 2°59.739 18.9566 4.375844 32.280085 -3.020363
2011-07-06 15:35:37 51°17.571 2°59.518 18.9705 4.38829 32.383931 -3.020363
2011-07-06 15:36:37 51°17.484 2°59.292 18.9922 4.407788 32.536226 -3.020363
2011-07-06 15:37:37 51°17.408 2°59.055 19.0062 4.430296 32.702299 -3.020363
2011-07-06 15:38:37 51°17.322 2°58.826 19.0069 4.444609 32.812439 -3.020363
2011-07-06 15:39:37 51°17.234 2°58.593 19.0072 4.450626 32.864594 -3.020363
2011-07-06 15:40:37 51°17.149 2°58.359 19.2031 0.117871 0.665573 -3.020363
2011-07-06 15:41:37 51°17.07 2°58.119 19.2954 0.075097 0.416662 -3.020363
2011-07-06 15:42:37 51°16.982 2°57.888 19.3804 0.062245 0.34325 -3.020363
2011-07-06 15:43:37 51°16.887 2°57.666 19.4244 0.057721 0.317579 -3.020363
2011-07-06 15:44:37 51°16.795 2°57.45 19.5192 0.053917 0.296075 -3.020363
2011-07-06 15:45:37 51°16.703 2°57.228 19.6331 0.051758 0.283893 -3.020363
2011-07-06 15:46:37 51°16.607 2°57.008 19.7203 0.050216 0.275208 -3.020363
2011-07-06 15:47:37 51°16.506 2°56.802 19.8167 0.047851 0.261923 -3.020363
2011-07-06 15:48:37 51°16.407 2°56.586 19.905 0.048057 0.263052 -3.020363
2011-07-06 15:49:37 51°16.307 2°56.369 19.9894 0.046412 0.25383 -3.020363
2011-07-06 15:50:37 51°16.198 2°56.162 20.0654 0.045795 0.250364 -3.020363
2011-07-06 15:51:37 51°16.086 2°55.953 20.1578 0.045692 0.249767 -3.020363
2011-07-06 15:52:37 51°15.968 2°55.755 20.2208 0.044664 0.24401 -3.020363
2011-07-06 15:53:37 51°15.855 2°55.55 20.2923 0.044252 0.241699 -3.020363
2011-07-06 15:54:37 51°15.736 2°55.358 20.3778 0.043636 0.238239 -3.020363
2011-07-06 15:55:37 51°15.608 2°55.186 20.4559 0.042916 0.234214 -3.020363
2011-07-06 15:56:37 51°15.45 2°55.072 20.4188 0.042299 0.230761 -3.020363
2011-07-06 15:57:37 51°15.289 2°54.962 20.5063 0.041682 0.227316 -3.020363
2011-07-06 15:58:37 51°15.121 2°54.885 20.6113 0.041168 0.224441 -3.020363
2011-07-06 15:59:37 51°14.944 2°54.857 20.6596 0.040448 0.220423 -3.020363
2011-07-06 16:00:37 51°14.762 2°54.889 20.7415 0.039934 0.217553 -3.020363
2011-07-06 16:01:37 51°14.588 2°55.033 20.8238 0.039215 0.213544 -3.020363
2011-07-06 16:02:37 51°14.405 2°55.156 20.8877 0.038495 0.209543 -3.020363
2011-07-06 16:03:37 51°14.228 2°55.328 20.9039 0.037878 0.206104 -3.020363
2011-07-06 16:04:37 51°14.066 2°55.459 20.9669 0.037261 0.202676 -3.020363
2011-07-06 16:05:37 51°13.949 2°55.544 21.0197 0.036644 0.199248 -3.020363
2011-07-06 16:06:37 51°13.846 2°55.618 21.0883 0.036027 0.195827 -3.020363
2011-07-06 16:07:37 51°13.769 2°55.697 21.1596 0.035513 0.192977 -3.020363
2011-07-06 16:08:37 51°13.725 2°55.778 21.2057 0.034999 0.190125 -3.020363
2011-07-06 16:09:37 51°13.69 2°55.851 21.2632 0.034588 0.187845 -3.020363
2011-07-06 16:10:37 51°13.665 2°55.91 21.3388 0.03428 0.186128 -3.020363
2011-07-06 16:11:41 51°13.646 2°55.968 21.3807 0.033868 0.183848 -3.020363